Volver al catálogo

ELISA W11

ActivoMilitarSSO
NORAD 38007·PAYLOAD·🇫🇷 France

Lanzado Dec 17, 2011 desde Guiana Space Centre

Loading…

Próximos Pases (próximas 24 horas)

TLE

ActualizadoSource: Space-Track

Época: Sep 14, 2026, 14:36 UTC

1 38007U 11076A   26257.60900554  .00000313  00000-0  50454-4 0  9993
2 38007  97.7729 250.7194 0001471  81.4650 278.6728 14.77710954789960

Sigue ELISA W11 en tiempo real con AllMySat

Download on the App Store